Regional Weather Roundup
Issued by NWS

Home | Current Version | Previous Version | Text Only | Print | Product List | Glossary On
Versions: 1 2 3 4 5 6 7 8 9 10 11 12 13 14 15 16 17 18 19 20 21 22 23 24 25 26 27
000
ASUS45 KPSR 250310
RWRAZ

ARIZONA HOURLY REGIONAL WEATHER ROUNDUP
NATIONAL WEATHER SERVICE PHOENIX AZ
800 PM MST MON APR 24 2017

NOTE: FAIR INDICATES FEW OR NO CLOUDS BELOW 12,000 FEET WITH NO
SIGNIFICANT WEATHER AND/OR OBSTRUCTIONS TO VISIBILITY.

AZZ001>003-036-250400-
NORTHWEST ARIZONA

CITY           SKY/WX    TMP DP  RH WIND       PRES   REMARKS
BULLHEAD CITY  MOCLDY    81  32  17 SW14      29.56S HAZE
KINGMAN        MOCLDY    67  32  27 S9        29.70R
$$

AZZ004>008-015-016-018-250400-
NORTH CENTRAL ARIZONA

CITY           SKY/WX    TMP DP  RH WIND       PRES   REMARKS
GRAND CANYON   CLOUDY    54  28  36 W9        29.82R
WILLIAMS       CLOUDY    54  27  35 VRB7G15   29.85S
PRESCOTT       CLOUDY    62  29  28 S3        29.81S
FLAGSTAFF      CLOUDY    54  27  35 SW20G28   29.84R
PAYSON         PTCLDY    64  16  15 SW12      29.85R
PAGE           MOCLDY    69  22  16 W8G22     29.63R
$$

AZZ009>014-017-250400-
NORTHEAST ARIZONA

CITY           SKY/WX    TMP DP  RH WIND       PRES   REMARKS
WINSLOW        MOCLDY    64  18  17 SW14      29.76R
SAINT JOHNS    MOCLDY    63  19  18 W10       29.79R
WINDOW ROCK    CLOUDY    60  18  19 SW18G30   29.78R
SHOW LOW       MOCLDY    57  19  23 SW18      29.85R
$$

AZZ540-542>544-546-548-250400-
GREATER PHOENIX AREA

CITY           SKY/WX    TMP DP  RH WIND       PRES   REMARKS
PHOENIX        MOCLDY    84  21  10 W14       29.61R
BUCKEYE        MOCLDY    81  27  13 SW9       29.62R
GLENDALE       MOCLDY    84  23  10 CALM      29.63R
LUKE AFB       MOCLDY    82  28  14 SW13      29.60R
DEER VALLEY    MOCLDY    81  20  10 SW10      29.63R
SCOTTSDALE     MOCLDY    82  19   9 W8        29.64R
MESA-GATEWAY   CLEAR     82  21  10 W6        29.64R
CHANDLER       CLEAR     82  16   8 SW9       29.62R
$$

AZZ539-553-250400-
SOUTHWEST MARICOPA COUNTY AND PINAL COUNTY

CITY           SKY/WX    TMP DP  RH WIND       PRES   REMARKS
CASA GRANDE    MOCLDY    81  25  12 SW13      29.65R
GILA BEND      MOCLDY    83  32  16 SW14      29.61R
$$

AZZ503-504-507>509-250400-
SOUTHEAST ARIZONA

CITY           SKY/WX    TMP DP  RH WIND       PRES   REMARKS
TUCSON         MOCLDY    81  23  11 SW9       29.75S
DAVIS-MONTHAN  CLOUDY    79  24  13 SW6       29.74S
RYAN FIELD     CLEAR     81  21  11 SW8       29.74S
NOGALES        CLOUDY    74  14  10 SW15G23   29.86R
SIERRA VISTA   CLOUDY    73  14  10 SW12G24   29.88R
DOUGLAS        CLOUDY    74  16  11 SW13      29.84R
SAFFORD        PTCLDY    78  18  10 NW18G30   29.69R
$$

AZZ532-250400-
SOUTHWEST ARIZONA

CITY           SKY/WX    TMP DP  RH WIND       PRES   REMARKS
YUMA           MOCLDY    81  43  26 W22G28    29.64R
$$

CAZ041-043-047-048-061-525>527-560>570-250400-
SOUTHERN CALIFORNIA

CITY           SKY/WX    TMP DP  RH WIND       PRES   REMARKS
DOWNTOWN L.A.  PTCLDY    62  52  69 CALM      29.87R
L.A. AIRPORT   PTCLDY    59  52  77 W12       29.87S
SAN DIEGO      MOCLDY    63  53  70 S5        29.92S
BURBANK        PTCLDY    63  48  58 SE7       29.85S
ONTARIO        CLOUDY    62  52  69 SW10      29.86R
RIVERSIDE      MOCLDY    63  53  70 W10       29.86R
PALM SPRINGS   MOCLDY    79  47  32 N20G31    29.65R
EL CENTRO NAS  MOCLDY    76  42  29 W26       29.68R
IMPERIAL       MOCLDY    77  47  34 W7        29.66R
BLYTHE         CLOUDY    83  46  27 W9        29.57F
NEEDLES        MOCLDY    82  32  16 W15       29.58F
$$

NVZ020-UTZ003-250400-
SOUTHERN NEVADA-UTAH

CITY           SKY/WX    TMP DP  RH WIND       PRES   REMARKS
LAS VEGAS      MOCLDY    77  29  17 S12G21    29.58R
SALT LAKE CITY MOCLDY    47  43  86 S6        29.74R
$$

NMZ009-TXZ055-250400-
NEW MEXICO-WEST TEXAS

CITY           SKY/WX    TMP DP  RH WIND       PRES   REMARKS
ALBUQUERQUE    CLOUDY    71  14  11 W12       29.71R
EL PASO        MOCLDY    82  17   9 W32G45    29.70R
$$


........................KEY........................
SKY/WX - SKY CONDITION/WEATHER
TMP    - TEMPERATURE IN FAHRENHEIT
DP     - DEW POINT IN FAHRENHEIT
RH     - RELATIVE HUMIDITY IN PERCENT
WIND   - DIRECTION AND SPEED IN MILES PER HOUR (MPH)
VRB    - VARIABLE WIND DIRECTION
PRES   - MEAN SEA LEVEL PRESSURE IN INCHES OF MERCURY
         F - FALLING PRESSURE   R - RISING PRESSURE
         S - STEADY PRESSURE
VSB    - VISIBILITY IN MILES
HX     - HEAT INDEX IN FAHRENHEIT
WCI    - WIND CHILL INDEX IN FAHRENHEIT
TC     - TEMPERATURE IN CELSIUS WHICH IS ALSO KNOWN AS
         TEMPERATURE IN CENTIGRADE
AFB    - AIR FORCE BASE
         LUKE AFB IS LUKE AIR FORCE BASE
         DAVIS-MONTHAN IS DAVIS-MONTHAN AIR FORCE BASE
NAS    - NAVAL AIR STATION
         EL CENTRO NAS IS EL CENTRO NAVAL AIR STATION
N/A    - NOT AVAILABLE





USA.gov is the U.S. government's official web portal to all federal, state and local government web resources and services.